#timestamp,LO_Frequency,Hit,StdDev 
1654182015.4,286047006.3,N
1654182035.3,286047006.5,N
1654182055.1,286047006.9,N
1654182056.0,286047006.9,N
1654182075.8,286047005.1,N
1654182095.7,286047005.0,N
1654182115.5,286047003.3,N
1654182135.4,286047001.8,N
1654182155.2,286047002.3,N
1654182175.0,286046999.8,N
1654182175.9,286046999.8,N
1654182195.8,286047000.5,N
1654182215.6,286046999.4,N
1654182235.5,286046999.3,N
1654182255.3,286046997.2,N
1654182275.1,286046996.9,N
1654182295.9,286046999.0,N
1654182315.7,286046997.2,N
1654182335.5,286046997.6,N
1654182355.4,286046995.6,N
1654182375.2,286046996.0,N
1654182395.1,286046993.3,N
1654182396.0,286046993.3,N
1654182415.8,286046994.8,N
1654182435.6,286046994.8,N
1654182455.5,286046992.2,N
1654182475.3,286046992.8,N
1654182495.1,286046991.8,N
1654182515.9,286046994.7,N
1654182535.7,286046994.8,N
1654182555.6,286046991.8,N
1654182575.4,286046994.6,N
1654182595.2,286046996.3,N
1654182615.1,286046993.7,N
1654182616.0,286046993.7,N
1654182635.8,286046994.2,N
1654182655.7,286046992.0,N
1654182675.5,286046992.3,N
1654182695.3,286046992.7,N
1654182715.2,286046990.5,Y
1654182735.0,286046995.1,P
1654182735.9,286046995.1,P
1654182755.8,286046995.1,P
1654182775.6,286046995.4,Y
1654182795.4,286047002.6,P
1654182815.3,286047001.4,N
1654182835.1,286047004.2,N
1654182855.8,286047001.5,N
1654182875.7,286047002.3,N
1654182895.5,286047001.9,N
1654182915.4,286047001.9,N
1654182935.2,286047001.6,N
1654182955.0,286047010.3,Y
1654182955.9,286047010.3,P
1654182975.8,286047009.5,N
1654182995.6,286047010.5,N
1654183015.5,286047010.0,N
1654183035.3,286047010.7,Y
1654183055.1,286046998.6,P
1654183075.9,286046999.4,N
1654183095.7,286046999.6,N
1654183115.6,286046997.1,N
1654183135.4,286046997.7,N
1654183155.2,286046994.9,N
1654183175.1,286046995.4,N
1654183176.0,286046995.4,N
1654183195.8,286046996.3,N
1654183215.6,286046995.2,N
1654183235.5,286046995.3,N
1654183255.3,286046995.3,N
1654183275.2,286046995.8,N
1654183295.9,286046995.5,N
1654183315.7,286046995.9,N
1654183335.6,286046996.0,N
1654183355.4,286046995.6,N
1654183375.2,286046993.8,N
1654183395.1,286046993.7,N
1654183396.0,286046993.7,N
1654183415.8,286046993.5,N
1654183435.7,286046993.9,N
1654183455.5,286046994.1,N
1654183475.3,286046994.0,N
1654183495.2,286046993.8,N
1654183515.0,286046993.6,N
1654183515.9,286046993.6,N
1654183535.7,286046994.3,N
1654183555.6,286046992.1,N
1654183575.4,286046994.3,N
1654183595.3,286046991.9,Y
1654183615.1,286046999.3,P
1654183616.0,286046999.3,N
1654183635.8,286046999.4,N
1654183655.7,286046999.4,N
1654183675.5,286046999.4,N
1654183695.3,286046999.5,N
1654183715.2,286046998.3,N
1654183735.0,286046998.6,N
1654183735.9,286046998.6,N
1654183755.8,286046999.4,N
1654183775.6,286046999.4,N
1654183795.4,286046999.4,N
1654183815.3,286046999.1,N
1654183835.1,286046996.7,Y
1654183855.9,286046998.9,P
1654183875.7,286046997.0,P
1654183895.5,286046997.0,P
1654183915.4,286046999.3,N
1654183935.2,286046996.5,Y
1654183955.0,286047000.9,P
1654183955.9,286047000.9,N
1654183975.8,286047000.7,N
1654183995.6,286046998.2,N
1654184015.5,286046998.1,N
1654184035.3,286047000.8,N
1654184055.1,286046998.7,N
1654184075.9,286046998.5,N
1654184095.7,286046998.5,N
1654184115.5,286046998.7,N
1654184135.4,286047001.1,N
1654184155.2,286047000.7,N
1654184175.1,286047001.1,N
1654184176.0,286047001.1,N
1654184195.8,286047001.2,N
1654184215.6,286046998.4,N
1654184235.5,286046998.7,N
1654184255.3,286046999.2,N
1654184275.1,286046998.8,N
1654184295.9,286046999.2,N
1654184315.7,286046996.9,N
1654184335.6,286046997.2,N
1654184355.4,286046999.6,N
1654184375.2,286046999.2,N
1654184395.1,286046999.3,N
1654184396.0,286046999.3,N
1654184415.8,286046998.9,N
1654184435.7,286046998.1,N
1654184455.5,286046998.5,N
1654184475.3,286047001.0,N
1654184495.2,286047000.9,N
1654184515.9,286047001.1,N
1654184535.7,286047001.2,N
1654184555.6,286046998.4,N
1654184575.4,286046998.4,N
1654184595.3,286046998.6,N
1654184615.1,286046998.1,N
1654184616.0,286046998.1,N
1654184635.8,286046999.4,N
1654184655.7,286046998.8,N
1654184675.5,286046999.1,N
1654184695.3,286046998.7,N
1654184715.2,286046999.0,N
1654184735.0,286047000.7,N
1654184735.9,286047000.7,N
1654184755.8,286047000.5,N
1654184775.6,286047000.9,N
1654184795.4,286047001.1,N
1654184815.3,286047000.3,N
1654184835.1,286047000.2,N
1654184855.8,286047000.4,N
1654184875.7,286047001.0,N
1654184895.5,286047000.8,N
1654184915.4,286046999.3,N
1654184935.2,286046998.2,N
1654184955.0,286046999.6,N
1654184955.9,286046999.6,N
1654184975.8,286046999.0,N
1654184995.6,286046997.0,N
1654185015.5,286046996.9,N
1654185035.3,286046996.9,N
1654185055.1,286046994.9,Y
1654185075.9,286046997.5,P
1654185095.7,286046997.8,N
1654185115.6,286046997.1,P
1654185135.4,286046996.5,Y
1654185155.2,286047000.0,P
1654185175.1,286047000.5,N
1654185176.0,286047000.5,N
1654185195.8,286047000.2,N
1654185215.6,286047000.0,N
1654185235.5,286047000.2,N
1654185255.3,286046999.8,N
1654185275.2,286047001.0,N
1654185295.9,286047000.3,N
1654185315.7,286047000.6,N
1654185335.6,286046999.8,N
1654185355.4,286047002.8,Y
1654185375.3,286047002.1,P
1654185395.1,286047000.3,N
1654185396.0,286047000.3,N
1654185415.8,286047002.3,N
1654185435.7,286046999.9,N
1654185455.5,286047001.6,N
1654185475.3,286047001.9,N
1654185495.2,286047002.1,N
1654185515.0,286047002.1,N
1654185515.9,286047002.1,N
1654185535.8,286047001.6,N
1654185555.6,286046999.8,N
1654185575.4,286047002.2,N
1654185595.3,286047002.4,N
